• MPC Preparation (Info)

  • MPEC 2016-N149: 2014 JD80

    The following Minor Planet Electronic Circular may be linked-to from your own Web pages, but must not otherwise be redistributed electronically.

    A form allowing access to any MPEC is at the bottom of this page.


    Read MPEC 2016-N148 Read MPEC 2016-N150


    M.P.E.C. 2016-N149                               Issued 2016 July 15, 20:27 UT
    
         The Minor Planet Electronic Circulars contain information on unusual
             minor planets and routine data on comets.  They are published
        on behalf of Division F of the International Astronomical Union by the
              Minor Planet Center, Smithsonian Astrophysical Observatory,
                              Cambridge, MA 02138, U.S.A.
    
                 Prepared using the Tamkin Foundation Computer Network
    
                                  MPC@CFA.HARVARD.EDU
                URL https://www.minorplanetcenter.net/    ISSN 1523-6714
    
                                       2014 JD80
    
    Observations:
         K14J80D  C2013 06 18.51848 19 53 59.808-25 21 04.73         22.2 wLEN149F51
         K14J80D  C2013 06 18.53162 19 53 59.699-25 21 05.24         22.2 wLEN149F51
         K14J80D  C2013 06 18.54472 19 53 59.592-25 21 06.02         22.4 wLEN149F51
         K14J80D* C2014 05 09.59289 20 14 15.288-26 39 11.91         22.2 wLEN149F51
         K14J80D  C2014 05 09.60021 20 14 15.307-26 39 12.63         22.2 wLEN149F51
         K14J80D  C2014 05 09.60754 20 14 15.279-26 39 12.66         22.0 wLEN149F51
         K14J80D  C2014 07 29.40699 20 04 38.923-27 58 07.09         22.1 wLEN149F51
         K14J80D  C2014 07 29.41825 20 04 38.797-27 58 07.80         22.0 wLEN149F51
         K14J80D  C2014 07 29.42951 20 04 38.680-27 58 08.50         22.1 wLEN149F51
         K14J80D  C2014 07 29.44075 20 04 38.569-27 58 08.91         22.4 wLEN149F51
         K14J80D  C2014 08 22.37760 20 00 51.090-28 16 14.55         22.2 wLEN149F51
         K14J80D  C2014 08 22.38907 20 00 50.986-28 16 14.75         22.5 wLEN149F51
         K14J80D  C2014 08 22.40056 20 00 50.880-28 16 15.21         22.4 wLEN149F51
         K14J80D  C2014 08 22.41201 20 00 50.792-28 16 15.63         22.2 wLEN149F51
         K14J80D  C2014 08 23.31668 20 00 43.257-28 16 49.12         22.1 wLEN149F51
         K14J80D  C2014 08 23.32800 20 00 43.184-28 16 49.43         22.3 wLEN149F51
         K14J80D  C2014 08 23.33933 20 00 43.052-28 16 50.04         22.4 wLEN149F51
         K14J80D  C2014 08 23.35063 20 00 42.967-28 16 50.16         22.3 wLEN149F51
         K14J80D  C2015 07 24.43554 20 23 51.118-29 48 21.37         22.2 wLEN149F51
         K14J80D  C2015 07 24.44495 20 23 51.003-29 48 22.06         22.3 wLEN149F51
         K14J80D  C2015 07 24.45617 20 23 50.895-29 48 22.58         22.0 wLEN149F51
         K14J80D  C2015 07 24.46648 20 23 50.794-29 48 23.27         21.8 wLEN149F51
    
    Observer details:
    F51 Pan-STARRS 1, Haleakala.  Observers B. Gibson, T. Goggia, N. Primak,
        A. Schultz, M. Willman.  Measurers K. Chambers, S. Chastel, Y.-T. Chen,
        L. Denneau, H. Flewelling, M. Holman, M. Huber, R. Jedicke, M. Lackner,
        E. Lilly, H.-W. Lin, E. Magnier, M. Micheli, M. Payne, P. Veres,
        R. Wainscoat, C. Waters, R. Weryk.  1.8-m Ritchey-Chretien + CCD.
    
    Orbital elements:
    2014 JD80
    Epoch 2016 July 31.0 TT = JDT 2457600.5                 MPC
    M 334.58306              (2000.0)            P               Q
    n   0.00775907     Peri.  241.86139     +0.80085808     +0.05783622
    a  25.2694868      Node   109.06795     +0.01737998     +0.99266142
    e   0.2479137      Incl.   39.09867     -0.59860193     +0.10619919
    P 127.03           H    8.9           G   0.15           U   2
    Residuals in seconds of arc
    130618 F51  0.1-  0.2-    140729 F51  0.1-  0.0     140823 F51  0.1-  0.1-
    130618 F51  0.0   0.1+    140729 F51  0.0   0.1+    140823 F51  0.0   0.2+
    130618 F51  0.0   0.0     140822 F51  0.0   0.1-    150724 F51  0.0   0.0
    140509 F51  0.1-  0.0     140822 F51  0.1-  0.1+    150724 F51  0.2-  0.1-
    140509 F51  0.3+  0.3-    140822 F51  0.2-  0.1+    150724 F51  0.0   0.0
    140509 F51  0.0   0.0     140822 F51  0.0   0.1+    150724 F51  0.1+  0.0
    140729 F51  0.0   0.2+    140823 F51  0.1+  0.0
    140729 F51  0.1-  0.1+    140823 F51  0.4+  0.1+
    
    Ephemeris:
    2014 JD80                a,e,i = 25.27, 0.25, 39                 q = 19.005
    Date    TT    R. A. (2000) Decl.     Delta      r     Elong.  Phase     V
    2016 06 15    20 48 57.5 -30 46 59  19.3069 20.0542   136.4     2.0    22.1
    ...
    2016 06 30    20 47 07.2 -31 06 37  19.1582 20.0454   150.0     1.5    22.0
    ...
    2016 07 08    20 45 55.7 -31 16 55  19.1018 20.0406   156.9     1.1    22.0
    ...
    2016 07 14    20 44 57.8 -31 24 25  19.0709 20.0371   161.4     0.9    22.0
    2016 07 15    20 44 47.8 -31 25 38  19.0667 20.0365   162.1     0.9    22.0
    2016 07 16    20 44 37.8 -31 26 51  19.0628 20.0359   162.8     0.9    22.0
    ...
    2016 07 22    20 43 36.4 -31 33 57  19.0453 20.0324   165.9     0.7    21.9
    ...
    2016 07 30    20 42 12.2 -31 42 51  19.0381 20.0277   166.8     0.7    21.9
    ...
    2016 08 14    20 39 34.8 -31 57 12  19.0742 20.0189   158.3     1.1    22.0
    
    A. U. Tomatic                (C) Copyright 2016 MPC           M.P.E.C. 2016-N149
    

    Read MPEC 2016-N148 Read MPEC 2016-N150


    MPEC number:

    Enter an MPEC number in one of the following forms:

    • 1997-B01 (the full form)
    • J97B01 (the packed version of the full form)
    • B01 (the abbreviated form)